Regional Weather Roundup
Issued by NWS

Home | Current Version | Previous Version | Graphics & Text | Print | Product List | Glossary On
Versions: 1 2 3 4 5 6 7 8 9 10 11 12 13 14 15 16 17 18 19 20 21 22 23 24 25 26 27 28 29 30 31 32 33 34 35 36 37 38 39 40 41 42 43 44 45 46 47 48 49 50
000
ASUS43 KMPX 250401
RWRMN
WEATHER ROUNDUP FOR MINNESOTA
NATIONAL WEATHER SERVICE TWIN CITIES/CHANHASSEN MN
1100 PM CDT TUE MAY 24 2016


NOTE: "FAIR" INDICATES FEW OR NO CLOUDS BELOW 12,000 FEET WITH NO
SIGNIFICANT WEATHER AND/OR OBSTRUCTIONS TO VISIBILITY. N/A MEANS
CURRENT SKY AND/OR WEATHER CONDITIONS ARE NOT AVAILABLE.

MNZ060>063-068>070-250500-
   Twin Cities Metro

CITY           SKY/WX    TMP DP  RH WIND       PRES   REMARKS
TWIN CITIES    PTCLDY    74  54  49 SE7       29.91R
ST PAUL        PTCLDY    72  53  51 SE5       29.91R
CRYSTAL        CLEAR     65  55  70 CALM      29.90R
BLAINE         CLEAR     64  57  77 SE5       29.92R
EDEN PRAIRIE   CLEAR     68  54  60 E5        29.90R
SOUTH ST PAUL  CLEAR     73  55  53 CALM      29.91R
LAKE ELMO      FAIR      70  54  56 E6        29.93S
$$
MNZ001>005-007-008-013>017-022>024-027-028-250500-
   Northwest Minnesota

CITY           SKY/WX    TMP DP  RH WIND       PRES   REMARKS
BEMIDJI        CLOUDY    59  46  60 CALM      29.93S
HALLOCK        CLEAR     64  50  59 E7        29.89S HAZE
ROSEAU         CLEAR     57  50  77 E5        29.93S
WARROAD        CLEAR     61  55  82 E7        29.95R
THIEF RVR FALL CLEAR     66  46  48 NE7       29.92S
CROOKSTON      CLEAR     66  48  52 E7        29.90S
FOSSTON        CLEAR     57  48  72 E3        29.93R
DETROIT LAKES  CLEAR     68  52  56 E5        29.92S
MOORHEAD       CLEAR     66  46  48 E8        29.87F
PARK RAPIDS    CLEAR     63  52  67 E5        29.93S
MAHNOMEN       FAIR      62  52  70 E8        29.91R
$$
MNZ006-009>011-018-025>026-250500-
   North Central Minnesota

CITY           SKY/WX    TMP DP  RH WIND       PRES   REMARKS
BAUDETTE       CLEAR     59  51  75 E12       29.96R
FLAG ISLAND    CLEAR     63  54  72 SE6       29.94R
INTL FALLS     CLEAR     57  51  80 E6        29.97S
WASKISH        CLEAR     61  54  77 MISG      29.95S
BIG FORK       CLEAR     61  50  67 N5        29.96S
LONGVILLE      PTCLDY    57  55  94 SE3       29.94S
CRANE LAKE     CLEAR     57  54  88 CALM      30.01R
ORR            CLEAR     61  52  72 E5        29.97R
COOK           CLEAR     61  54  77 E6        30.00R
WALKER         FAIR      64  51  64 SE5       29.95R
$$
MNZ012-019>021-037-250500-
   Northeast Minnesota

CITY           SKY/WX    TMP DP  RH WIND       PRES   REMARKS
DULUTH         FOG       53  52  96 E13       30.00R VSB 3/4
ELY            CLOUDY    55  48  76 SE8       30.02S
HIBBING        CLOUDY    57  54  89 SE5       29.99R
EVELETH        CLOUDY    57  54  88 E5        30.01R
DULUTH HARBOR  LGT RAIN  46  46 100 NE18      30.03R VSB 3/4
TWO HARBORS    CLOUDY    54  48  82 NE9G17    30.01R HAZE
SILVER BAY     FOG       52  50  93 NE8       30.03R VSB 3/4
GRAND MARAIS     N/A     53  50  89 NE12      30.06R
G MARAIS ARPRT LGT RAIN  54  48  82 NE7       30.08F
$$
MNZ029>031-032-039>041-046>048-054>057-064-250500-
   West Central Minnesota

CITY           SKY/WX    TMP DP  RH WIND       PRES   REMARKS
FERGUS FALLS   CLEAR     70  52  52 E6        29.83F
WHEATON        CLEAR     72  55  56 E13       29.85S
MORRIS         CLEAR     66  55  68 E10       29.86R
ALEXANDRIA     CLEAR     64  53  67 E9        29.91R
ELBOW LAKE     FAIR      67  55  65 SE13      29.87S
WADENA         CLEAR     61  55  82 E7        29.92S
GLENWOOD       CLEAR     63  54  72 NE8       29.91R
APPLETON       PTCLDY    72  54  53 SE10G16   29.84S
ORTONVILLE     CLOUDY    70  55  60 SE7       29.84S
MADISON        CLOUDY    72  50  46 SE10      29.85S
WILLMAR        FAIR      66  57  72 E6        29.89S
$$
MNZ033>034-036-042>043-049>051-058-059-250500-
   Central Minnesota

CITY           SKY/WX    TMP DP  RH WIND       PRES   REMARKS
ST CLOUD       CLEAR     65  54  67 NE7       29.91R
SAUK CENTRE    FAIR      62  55  78 E8        29.91R
PAYNESVILLE    CLEAR     67  56  68 CALM      29.91R
AITKIN         CLEAR     61  52  72 NE7       29.93F
PINE RIVER     PTCLDY    55  55 100 CALM      29.97S
BRAINERD       PTCLDY    59  57  93 VRB3      29.94R
STAPLES        CLOUDY    61  54  77 E3        29.93R
LONG PRAIRIE   FAIR      61  54  77 NE7       29.93R
LITTLE FALLS   PTCLDY    63  52  67 NE6       29.92S
LITCHFIELD     CLEAR     64  61  88 E5        29.90S
BUFFALO        CLEAR     66  58  75 CALM      29.91S
MAPLE LAKE     CLEAR     64  60  87 CALM      29.92R
HUTCHINSON     PTCLDY    66  58  75 E7        29.90S
$$
MNZ037-044-045-052-053-250500-
   East Central Minnesota

CITY           SKY/WX    TMP DP  RH WIND       PRES   REMARKS
PRINCETON      CLEAR     68  57  68 N7        29.93S
MORA           CLEAR     64  52  63 NE3       29.96S
CAMBRIDGE      CLEAR     63  55  77 CALM      29.91S
RUSH CITY      MOCLDY    62  59  92 N7        29.94R
MOOSE LAKE     CLOUDY    54  52  94 NE7       29.96F
HINCKLEY       FAIR      64  55  72 N8        29.95S
CLOQUET        FOG       54  52  94 E10       30.00F VSB 1
MCGREGOR       PTCLDY    59  55  88 N7        29.96F
$$
MNZ071>073-080-081-089-090-097-098-250500-
   Southwest Minnesota

CITY           SKY/WX    TMP DP  RH WIND       PRES   REMARKS
MONTEVIDEO     PTCLDY    68  54  60 S9        29.88R
GRANITE FALLS  CLOUDY    73  53  50 E12       29.88R
CANBY          CLOUDY    72  54  51 E8        29.86S
REDWOOD FALLS  CLEAR     70  50  49 SE6       29.86S
OLIVIA         CLEAR     63  45  51 SE9       29.87S
PIPESTONE      CLOUDY    72  54  53 S7        29.87S
WINDOM         CLEAR     70  59  68 CALM      29.89S
WORTHINGTON    CLEAR     71  62  73 S13       29.89S
JACKSON        CLEAR     70  59  68 S8        29.90F
SLAYTON        CLEAR     66  58  73 SE3       29.89S
$$
MNZ065>067-074>077-082>085-091>093-250500-
   South Central Minnesota

CITY           SKY/WX    TMP DP  RH WIND       PRES   REMARKS
MANKATO        CLEAR     72  55  56 SE7       29.91S
NEW ULM        CLEAR     70  54  56 SE8       29.88S
ST JAMES       CLEAR     66  55  68 SE8       29.89F
FAIRMONT       CLEAR     70  46  43 S8        29.89F
GLENCOE        CLEAR     68  59  73 E8        29.89S
FARIBAULT      CLEAR     64  55  72 CALM      29.93R
OWATONNA       CLEAR     70  55  60 SE5       29.92S
WASECA         CLEAR     66  55  68 E5        29.93R
ALBERT LEA     CLEAR     66  57  72 CALM      29.91S
$$
MNZ078>079-086>088-094>096-250500-
   Southeast Minnesota

CITY           SKY/WX    TMP DP  RH WIND       PRES   REMARKS
ROCHESTER      CLEAR     67  57  70 E5        29.94S
RED WING       CLEAR     63  57  82 E3        29.91S
STANTON        CLEAR     72  56  57 SE3       29.90F
DODGE CENTER   CLEAR     64  54  68 E5        29.93F
WINONA         CLEAR     66  61  82 CALM      29.93S
AUSTIN         CLEAR     64  61  88 E3        29.92S
PRESTON        CLEAR     70  58  65 E6        29.94S
$$
ABBREVIATIONS USED IN REMARKS
   TC - TEMPERATURES IN CELSIUS
  WCI - WIND CHILL INDEX
   HX - HEAT INDEX
  VSB - VISIBILITY
$$



USA.gov is the U.S. government's official web portal to all federal, state and local government web resources and services.